User: anonymous   Login
Location: Stamford Observatory
(41.1241°N, 73.5498°W)
Time: 12:41:02
(UTC-04:00)
Language:

IRS-P3 - Orbit

View from above orbital plane
View from above orbital plane
View from above satellite
View from above satellite

Ground track
Ground track

The orbit data is extracted from the following two-line orbital elements,

1 23827U 96017A   15107.81636321  .00000210  00000-0  11398-3 0  9997
2 23827 098.6545 045.8072 0003741 149.1608 210.9790 14.22345992989905
Epoch (UTC): 17 April 2015 19:35:33
Eccentricity: 0.0003741
inclination: 98.6545°
perigee height: 815 km
apogee height: 820 km
right ascension of ascending node: 45.8072°
argument of perigee: 149.1608°
revolutions per day: 14.22345992
mean anomaly at epoch: 210.9790°
orbit number at epoch: 98990

The dashed part of the orbit path shows where the satellite is in the earth's shadow,  

DLR